iso_date,epoch_date,Year,Hour,Min,DOY,POS_DOY,Lat,Lon,BP,Ts,Ta,has_bp,has_ts,has_ta,BuoyID,Buoy_Type,Buoy_Owner,Logistics,Hemisphere
2018-08-10T00:00:00Z,1533859200,2018,0,0,222.0,222.0,81.649,9.6178,1007.3,0.8,-999.0,yes,yes,no,300234065745780,BD2GI,AOML,ODEN,North
2018-08-10T01:00:28Z,1533862829,2018,1,0,222.042,222.042,81.6454,9.6236,1007.4,0.8,-999.0,yes,yes,no,300234065745780,BD2GI,AOML,ODEN,North
2018-08-10T01:59:31Z,1533866371,2018,2,0,222.083,222.083,81.6438,9.6218,1007.7,0.8,-999.0,yes,yes,no,300234065745780,BD2GI,AOML,ODEN,North
2018-08-10T03:00:00Z,1533870000,2018,3,0,222.125,222.125,81.642,9.6088,1008.0,0.8,-999.0,yes,yes,no,300234065745780,BD2GI,AOML,ODEN,North
2018-08-10T04:00:28Z,1533873629,2018,4,0,222.167,222.167,81.641,9.5814,1008.1,0.8,-999.0,yes,yes,no,300234065745780,BD2GI,AOML,ODEN,North
2018-08-10T04:59:31Z,1533877171,2018,5,0,222.208,222.208,81.642,9.5506,1008.3,0.9,-999.0,yes,yes,no,300234065745780,BD2GI,AOML,ODEN,North
2018-08-10T06:00:00Z,1533880800,2018,6,0,222.25,222.25,81.6436,9.5302,1008.6,0.9,-999.0,yes,yes,no,300234065745780,BD2GI,AOML,ODEN,North
2018-08-10T07:00:28Z,1533884429,2018,7,0,222.292,222.292,81.6446,9.5208,1008.7,0.8,-999.0,yes,yes,no,300234065745780,BD2GI,AOML,ODEN,North
2018-08-10T07:59:31Z,1533887971,2018,8,0,222.333,222.333,81.6446,9.525,1009.1,0.9,-999.0,yes,yes,no,300234065745780,BD2GI,AOML,ODEN,North
2018-08-10T09:00:00Z,1533891600,2018,9,0,222.375,222.375,81.6424,9.544,1009.4,0.9,-999.0,yes,yes,no,300234065745780,BD2GI,AOML,ODEN,North
2018-08-10T10:00:28Z,1533895229,2018,10,0,222.417,222.417,81.639,9.5584,1009.8,0.9,-999.0,yes,yes,no,300234065745780,BD2GI,AOML,ODEN,North
2018-08-10T10:59:31Z,1533898771,2018,11,0,222.458,222.458,81.6336,9.5692,1010.1,0.9,-999.0,yes,yes,no,300234065745780,BD2GI,AOML,ODEN,North
2018-08-10T12:00:00Z,1533902400,2018,12,0,222.5,222.5,81.6276,9.5678,1010.3,1.0,-999.0,yes,yes,no,300234065745780,BD2GI,AOML,ODEN,North
2018-08-10T13:00:28Z,1533906029,2018,13,0,222.542,222.542,81.6208,9.5436,1010.5,1.1,-999.0,yes,yes,no,300234065745780,BD2GI,AOML,ODEN,North
2018-08-10T13:59:31Z,1533909571,2018,14,0,222.583,222.583,81.6158,9.5102,1010.7,1.1,-999.0,yes,yes,no,300234065745780,BD2GI,AOML,ODEN,North
2018-08-10T15:00:00Z,1533913200,2018,15,0,222.625,222.625,81.6136,9.4578,1010.9,1.1,-999.0,yes,yes,no,300234065745780,BD2GI,AOML,ODEN,North
2018-08-10T16:00:28Z,1533916829,2018,16,0,222.667,222.667,81.6152,9.4084,1011.2,1.1,-999.0,yes,yes,no,300234065745780,BD2GI,AOML,ODEN,North
2018-08-10T16:59:31Z,1533920371,2018,17,0,222.708,222.708,81.619,9.3734,1011.6,0.7,-999.0,yes,yes,no,300234065745780,BD2GI,AOML,ODEN,North
2018-08-10T18:00:00Z,1533924000,2018,18,0,222.75,222.75,81.6234,9.356,1011.8,0.6,-999.0,yes,yes,no,300234065745780,BD2GI,AOML,ODEN,North
2018-08-10T19:00:28Z,1533927629,2018,19,0,222.792,222.792,81.6268,9.3458,1011.9,0.6,-999.0,yes,yes,no,300234065745780,BD2GI,AOML,ODEN,North
2018-08-10T19:59:31Z,1533931171,2018,20,0,222.833,222.833,81.6296,9.3474,1012.3,0.7,-999.0,yes,yes,no,300234065745780,BD2GI,AOML,ODEN,North
2018-08-10T21:00:00Z,1533934800,2018,21,0,222.875,222.875,81.6312,9.3696,1012.8,0.7,-999.0,yes,yes,no,300234065745780,BD2GI,AOML,ODEN,North
2018-08-10T22:00:28Z,1533938429,2018,22,0,222.917,222.917,81.6308,9.4062,1012.8,0.8,-999.0,yes,yes,no,300234065745780,BD2GI,AOML,ODEN,North
2018-08-10T22:59:31Z,1533941971,2018,23,0,222.958,222.958,81.6302,9.4302,1013.0,0.9,-999.0,yes,yes,no,300234065745780,BD2GI,AOML,ODEN,North
2018-08-11T00:00:00Z,1533945600,2018,0,0,223.0,223.0,81.6278,9.4466,1013.2,0.9,-999.0,yes,yes,no,300234065745780,BD2GI,AOML,ODEN,North
2018-08-11T01:00:28Z,1533949229,2018,1,0,223.042,223.042,81.625,9.4506,1013.3,0.9,-999.0,yes,yes,no,300234065745780,BD2GI,AOML,ODEN,North
2018-08-11T01:59:31Z,1533952771,2018,2,0,223.083,223.083,81.6222,9.4508,1013.4,1.1,-999.0,yes,yes,no,300234065745780,BD2GI,AOML,ODEN,North
2018-08-11T03:00:00Z,1533956400,2018,3,0,223.125,223.125,81.6208,9.4358,1013.6,1.1,-999.0,yes,yes,no,300234065745780,BD2GI,AOML,ODEN,North
2018-08-11T04:00:28Z,1533960029,2018,4,0,223.167,223.167,81.6208,9.4152,1013.8,1.1,-999.0,yes,yes,no,300234065745780,BD2GI,AOML,ODEN,North
2018-08-11T04:59:31Z,1533963571,2018,5,0,223.208,223.208,81.6212,9.3962,1013.8,1.1,-999.0,yes,yes,no,300234065745780,BD2GI,AOML,ODEN,North
2018-08-11T06:00:00Z,1533967200,2018,6,0,223.25,223.25,81.6214,9.3898,1013.8,1.1,-999.0,yes,yes,no,300234065745780,BD2GI,AOML,ODEN,North
2018-08-11T07:00:28Z,1533970829,2018,7,0,223.292,223.292,81.6204,9.3802,1013.7,1.0,-999.0,yes,yes,no,300234065745780,BD2GI,AOML,ODEN,North
2018-08-11T07:59:31Z,1533974371,2018,8,0,223.333,223.333,81.6178,9.3718,1014.0,1.1,-999.0,yes,yes,no,300234065745780,BD2GI,AOML,ODEN,North
2018-08-11T09:00:00Z,1533978000,2018,9,0,223.375,223.375,81.6142,9.3608,1014.2,1.2,-999.0,yes,yes,no,300234065745780,BD2GI,AOML,ODEN,North
2018-08-11T10:00:28Z,1533981629,2018,10,0,223.417,223.417,81.61,9.3556,1014.3,1.2,-999.0,yes,yes,no,300234065745780,BD2GI,AOML,ODEN,North
2018-08-11T10:59:31Z,1533985171,2018,11,0,223.458,223.458,81.6048,9.3534,1014.4,1.2,-999.0,yes,yes,no,300234065745780,BD2GI,AOML,ODEN,North
2018-08-11T12:00:00Z,1533988800,2018,12,0,223.5,223.5,81.5992,9.3398,1014.1,1.2,-999.0,yes,yes,no,300234065745780,BD2GI,AOML,ODEN,North
2018-08-11T13:00:28Z,1533992429,2018,13,0,223.542,223.542,81.5942,9.3106,1014.0,1.2,-999.0,yes,yes,no,300234065745780,BD2GI,AOML,ODEN,North
2018-08-11T13:59:31Z,1533995971,2018,14,0,223.583,223.583,81.5906,9.2792,1014.2,1.2,-999.0,yes,yes,no,300234065745780,BD2GI,AOML,ODEN,North
2018-08-11T15:00:00Z,1533999600,2018,15,0,223.625,223.625,81.5894,9.252,1014.1,1.1,-999.0,yes,yes,no,300234065745780,BD2GI,AOML,ODEN,North
2018-08-11T16:00:28Z,1534003229,2018,16,0,223.667,223.667,81.5888,9.2162,1014.1,1.2,-999.0,yes,yes,no,300234065745780,BD2GI,AOML,ODEN,North
2018-08-11T16:59:31Z,1534006771,2018,17,0,223.708,223.708,81.5896,9.1838,1014.2,1.3,-999.0,yes,yes,no,300234065745780,BD2GI,AOML,ODEN,North
2018-08-11T18:00:00Z,1534010400,2018,18,0,223.75,223.75,81.591,9.1564,1014.0,1.3,-999.0,yes,yes,no,300234065745780,BD2GI,AOML,ODEN,North
2018-08-11T19:00:28Z,1534014029,2018,19,0,223.792,223.792,81.594,9.1404,1013.9,1.4,-999.0,yes,yes,no,300234065745780,BD2GI,AOML,ODEN,North
2018-08-11T19:59:31Z,1534017571,2018,20,0,223.833,223.833,81.5968,9.1386,1013.8,1.4,-999.0,yes,yes,no,300234065745780,BD2GI,AOML,ODEN,North
2018-08-11T21:00:00Z,1534021200,2018,21,0,223.875,223.875,81.5984,9.1336,1013.9,1.4,-999.0,yes,yes,no,300234065745780,BD2GI,AOML,ODEN,North
2018-08-11T22:00:28Z,1534024829,2018,22,0,223.917,223.917,81.5996,9.1356,1013.8,1.5,-999.0,yes,yes,no,300234065745780,BD2GI,AOML,ODEN,North
2018-08-11T22:59:31Z,1534028371,2018,23,0,223.958,223.958,81.5998,9.1542,1013.7,1.5,-999.0,yes,yes,no,300234065745780,BD2GI,AOML,ODEN,North
2018-08-12T00:00:00Z,1534032000,2018,0,0,224.0,224.0,81.599,9.1748,1013.6,1.4,-999.0,yes,yes,no,300234065745780,BD2GI,AOML,ODEN,North
2018-08-12T01:00:28Z,1534035629,2018,1,0,224.042,224.042,81.598,9.1996,1013.5,1.4,-999.0,yes,yes,no,300234065745780,BD2GI,AOML,ODEN,North
2018-08-12T01:59:31Z,1534039171,2018,2,0,224.083,224.083,81.5968,9.202,1013.5,1.4,-999.0,yes,yes,no,300234065745780,BD2GI,AOML,ODEN,North
2018-08-12T03:00:00Z,1534042800,2018,3,0,224.125,224.125,81.5954,9.2004,1013.3,1.5,-999.0,yes,yes,no,300234065745780,BD2GI,AOML,ODEN,North
2018-08-12T04:00:28Z,1534046429,2018,4,0,224.167,224.167,81.5952,9.1936,1013.3,1.4,-999.0,yes,yes,no,300234065745780,BD2GI,AOML,ODEN,North
2018-08-12T04:59:31Z,1534049971,2018,5,0,224.208,224.208,81.5946,9.1918,1013.3,1.4,-999.0,yes,yes,no,300234065745780,BD2GI,AOML,ODEN,North
2018-08-12T06:00:00Z,1534053600,2018,6,0,224.25,224.25,81.594,9.1872,1013.2,1.4,-999.0,yes,yes,no,300234065745780,BD2GI,AOML,ODEN,North
2018-08-12T07:00:28Z,1534057229,2018,7,0,224.292,224.292,81.5924,9.169,1013.5,1.4,-999.0,yes,yes,no,300234065745780,BD2GI,AOML,ODEN,North
2018-08-12T07:59:31Z,1534060771,2018,8,0,224.333,224.333,81.59,9.1556,1013.7,1.4,-999.0,yes,yes,no,300234065745780,BD2GI,AOML,ODEN,North
2018-08-12T09:00:00Z,1534064400,2018,9,0,224.375,224.375,81.586,9.151,1013.8,1.4,-999.0,yes,yes,no,300234065745780,BD2GI,AOML,ODEN,North
2018-08-12T10:00:28Z,1534068029,2018,10,0,224.417,224.417,81.5806,9.1456,1013.7,1.4,-999.0,yes,yes,no,300234065745780,BD2GI,AOML,ODEN,North
2018-08-12T10:59:31Z,1534071571,2018,11,0,224.458,224.458,81.5756,9.1294,1013.8,1.7,-999.0,yes,yes,no,300234065745780,BD2GI,AOML,ODEN,North
2018-08-12T12:00:00Z,1534075200,2018,12,0,224.5,224.5,81.5698,9.1142,1014.0,1.7,-999.0,yes,yes,no,300234065745780,BD2GI,AOML,ODEN,North
2018-08-12T13:00:28Z,1534078829,2018,13,0,224.542,224.542,81.5642,9.092,1014.0,1.8,-999.0,yes,yes,no,300234065745780,BD2GI,AOML,ODEN,North
2018-08-12T13:59:31Z,1534082371,2018,14,0,224.583,224.583,81.561,9.0776,1014.1,1.9,-999.0,yes,yes,no,300234065745780,BD2GI,AOML,ODEN,North
2018-08-12T15:00:00Z,1534086000,2018,15,0,224.625,224.625,81.5584,9.0616,1014.0,1.8,-999.0,yes,yes,no,300234065745780,BD2GI,AOML,ODEN,North
2018-08-12T16:00:28Z,1534089629,2018,16,0,224.667,224.667,81.5566,9.047,1013.9,1.8,-999.0,yes,yes,no,300234065745780,BD2GI,AOML,ODEN,North
2018-08-12T16:59:31Z,1534093171,2018,17,0,224.708,224.708,81.5556,9.0268,1014.0,1.6,-999.0,yes,yes,no,300234065745780,BD2GI,AOML,ODEN,North
2018-08-12T18:00:00Z,1534096800,2018,18,0,224.75,224.75,81.5534,9.0084,1014.1,1.4,-999.0,yes,yes,no,300234065745780,BD2GI,AOML,ODEN,North
2018-08-12T19:00:28Z,1534100429,2018,19,0,224.792,224.792,81.5518,8.9874,1013.9,1.4,-999.0,yes,yes,no,300234065745780,BD2GI,AOML,ODEN,North
2018-08-12T19:59:31Z,1534103971,2018,20,0,224.833,224.833,81.5512,8.961,1013.9,1.4,-999.0,yes,yes,no,300234065745780,BD2GI,AOML,ODEN,North
2018-08-12T21:00:00Z,1534107600,2018,21,0,224.875,224.875,81.5526,8.9454,1013.7,1.4,-999.0,yes,yes,no,300234065745780,BD2GI,AOML,ODEN,North
2018-08-12T22:00:28Z,1534111229,2018,22,0,224.917,224.917,81.5542,8.9516,1013.5,1.3,-999.0,yes,yes,no,300234065745780,BD2GI,AOML,ODEN,North
2018-08-12T22:59:31Z,1534114771,2018,23,0,224.958,224.958,81.555,8.9802,1013.4,1.3,-999.0,yes,yes,no,300234065745780,BD2GI,AOML,ODEN,North
2018-08-13T00:00:00Z,1534118400,2018,0,0,225.0,225.0,81.5536,9.0312,1013.4,1.3,-999.0,yes,yes,no,300234065745780,BD2GI,AOML,ODEN,North
2018-08-13T01:00:28Z,1534122029,2018,1,0,225.042,225.042,81.5496,9.0522,1013.5,1.3,-999.0,yes,yes,no,300234065745780,BD2GI,AOML,ODEN,North
2018-08-13T01:59:31Z,1534125571,2018,2,0,225.083,225.083,81.5452,9.0594,1013.4,1.3,-999.0,yes,yes,no,300234065745780,BD2GI,AOML,ODEN,North
2018-08-13T03:00:00Z,1534129200,2018,3,0,225.125,225.125,81.5398,9.057,1013.1,1.3,-999.0,yes,yes,no,300234065745780,BD2GI,AOML,ODEN,North
2018-08-13T04:00:28Z,1534132829,2018,4,0,225.167,225.167,81.5362,9.046,1013.2,1.3,-999.0,yes,yes,no,300234065745780,BD2GI,AOML,ODEN,North
2018-08-13T04:59:31Z,1534136371,2018,5,0,225.208,225.208,81.5344,9.0284,1013.0,1.3,-999.0,yes,yes,no,300234065745780,BD2GI,AOML,ODEN,North
2018-08-13T06:00:00Z,1534140000,2018,6,0,225.25,225.25,81.5324,9.0124,1013.0,1.3,-999.0,yes,yes,no,300234065745780,BD2GI,AOML,ODEN,North
2018-08-13T07:00:28Z,1534143629,2018,7,0,225.292,225.292,81.5298,9.01,1012.8,1.3,-999.0,yes,yes,no,300234065745780,BD2GI,AOML,ODEN,North
2018-08-13T07:59:31Z,1534147171,2018,8,0,225.333,225.333,81.5282,9.022,1012.8,1.3,-999.0,yes,yes,no,300234065745780,BD2GI,AOML,ODEN,North
2018-08-13T09:00:00Z,1534150800,2018,9,0,225.375,225.375,81.5242,9.0266,1012.7,1.3,-999.0,yes,yes,no,300234065745780,BD2GI,AOML,ODEN,North
2018-08-13T10:00:28Z,1534154429,2018,10,0,225.417,225.417,81.5164,9.0082,1012.7,1.3,-999.0,yes,yes,no,300234065745780,BD2GI,AOML,ODEN,North
2018-08-13T10:59:31Z,1534157971,2018,11,0,225.458,225.458,81.5088,8.999,1012.7,1.3,-999.0,yes,yes,no,300234065745780,BD2GI,AOML,ODEN,North
2018-08-13T12:00:00Z,1534161600,2018,12,0,225.5,225.5,81.5014,8.9928,1012.4,1.4,-999.0,yes,yes,no,300234065745780,BD2GI,AOML,ODEN,North
2018-08-13T13:00:28Z,1534165229,2018,13,0,225.542,225.542,81.4936,8.978,1012.4,1.4,-999.0,yes,yes,no,300234065745780,BD2GI,AOML,ODEN,North
2018-08-13T13:59:31Z,1534168771,2018,14,0,225.583,225.583,81.4866,8.945,1012.2,1.5,-999.0,yes,yes,no,300234065745780,BD2GI,AOML,ODEN,North
2018-08-13T15:00:00Z,1534172400,2018,15,0,225.625,225.625,81.4818,8.9226,1012.1,1.5,-999.0,yes,yes,no,300234065745780,BD2GI,AOML,ODEN,North
2018-08-13T16:00:28Z,1534176029,2018,16,0,225.667,225.667,81.4792,8.9062,1011.9,1.5,-999.0,yes,yes,no,300234065745780,BD2GI,AOML,ODEN,North
2018-08-13T16:59:31Z,1534179571,2018,17,0,225.708,225.708,81.4758,8.882,1011.5,1.6,-999.0,yes,yes,no,300234065745780,BD2GI,AOML,ODEN,North
2018-08-13T18:00:00Z,1534183200,2018,18,0,225.75,225.75,81.4734,8.8572,1011.2,1.6,-999.0,yes,yes,no,300234065745780,BD2GI,AOML,ODEN,North
2018-08-13T19:00:28Z,1534186829,2018,19,0,225.792,225.792,81.4736,8.8342,1010.9,1.6,-999.0,yes,yes,no,300234065745780,BD2GI,AOML,ODEN,North
2018-08-13T19:59:31Z,1534190371,2018,20,0,225.833,225.833,81.476,8.8276,1010.8,1.5,-999.0,yes,yes,no,300234065745780,BD2GI,AOML,ODEN,North
2018-08-13T21:00:00Z,1534194000,2018,21,0,225.875,225.875,81.477,8.8168,1010.5,1.6,-999.0,yes,yes,no,300234065745780,BD2GI,AOML,ODEN,North
2018-08-13T22:00:28Z,1534197629,2018,22,0,225.917,225.917,81.4766,8.8188,1010.2,1.6,-999.0,yes,yes,no,300234065745780,BD2GI,AOML,ODEN,North
2018-08-13T22:59:31Z,1534201171,2018,23,0,225.958,225.958,81.4748,8.8478,1009.9,1.6,-999.0,yes,yes,no,300234065745780,BD2GI,AOML,ODEN,North
2018-08-14T00:00:00Z,1534204800,2018,0,0,226.0,226.0,81.4718,8.8716,1009.7,1.6,-999.0,yes,yes,no,300234065745780,BD2GI,AOML,ODEN,North
2018-08-14T01:00:28Z,1534208429,2018,1,0,226.042,226.042,81.4676,8.8992,1009.4,1.6,-999.0,yes,yes,no,300234065745780,BD2GI,AOML,ODEN,North
2018-08-14T01:59:31Z,1534211971,2018,2,0,226.083,226.083,81.4636,8.915,1009.1,1.5,-999.0,yes,yes,no,300234065745780,BD2GI,AOML,ODEN,North
2018-08-14T03:00:00Z,1534215600,2018,3,0,226.125,226.125,81.4604,8.9214,1008.7,1.5,-999.0,yes,yes,no,300234065745780,BD2GI,AOML,ODEN,North
2018-08-14T04:00:28Z,1534219229,2018,4,0,226.167,226.167,81.4586,8.9432,1008.4,1.5,-999.0,yes,yes,no,300234065745780,BD2GI,AOML,ODEN,North
2018-08-14T04:59:31Z,1534222771,2018,5,0,226.208,226.208,81.4564,8.9602,1008.2,1.5,-999.0,yes,yes,no,300234065745780,BD2GI,AOML,ODEN,North
2018-08-14T06:00:00Z,1534226400,2018,6,0,226.25,226.25,81.4556,8.9706,1008.0,1.6,-999.0,yes,yes,no,300234065745780,BD2GI,AOML,ODEN,North
2018-08-14T07:00:28Z,1534230029,2018,7,0,226.292,226.292,81.454,8.9778,1008.0,1.6,-999.0,yes,yes,no,300234065745780,BD2GI,AOML,ODEN,North
2018-08-14T07:59:31Z,1534233571,2018,8,0,226.333,226.333,81.4494,8.9698,1007.7,1.7,-999.0,yes,yes,no,300234065745780,BD2GI,AOML,ODEN,North
2018-08-14T09:00:00Z,1534237200,2018,9,0,226.375,226.375,81.4456,8.966,1007.5,1.7,-999.0,yes,yes,no,300234065745780,BD2GI,AOML,ODEN,North
2018-08-14T10:00:28Z,1534240829,2018,10,0,226.417,226.417,81.4414,8.979,1007.5,1.8,-999.0,yes,yes,no,300234065745780,BD2GI,AOML,ODEN,North
2018-08-14T10:59:31Z,1534244371,2018,11,0,226.458,226.458,81.4358,8.9882,1007.2,1.8,-999.0,yes,yes,no,300234065745780,BD2GI,AOML,ODEN,North
2018-08-14T12:00:00Z,1534248000,2018,12,0,226.5,226.5,81.4282,8.9786,1007.2,1.8,-999.0,yes,yes,no,300234065745780,BD2GI,AOML,ODEN,North
2018-08-14T13:00:28Z,1534251629,2018,13,0,226.542,226.542,81.421,8.9736,1006.9,1.8,-999.0,yes,yes,no,300234065745780,BD2GI,AOML,ODEN,North
2018-08-14T13:59:31Z,1534255171,2018,14,0,226.583,226.583,81.4154,8.975,1006.5,1.8,-999.0,yes,yes,no,300234065745780,BD2GI,AOML,ODEN,North
2018-08-14T15:00:00Z,1534258800,2018,15,0,226.625,226.625,81.4106,8.9806,1006.3,1.8,-999.0,yes,yes,no,300234065745780,BD2GI,AOML,ODEN,North
2018-08-14T16:00:28Z,1534262429,2018,16,0,226.667,226.667,81.4054,8.9788,1005.9,1.8,-999.0,yes,yes,no,300234065745780,BD2GI,AOML,ODEN,North
2018-08-14T16:59:31Z,1534265971,2018,17,0,226.708,226.708,81.4018,8.9736,1005.6,1.8,-999.0,yes,yes,no,300234065745780,BD2GI,AOML,ODEN,North
2018-08-14T18:00:00Z,1534269600,2018,18,0,226.75,226.75,81.4002,8.9746,1005.5,1.7,-999.0,yes,yes,no,300234065745780,BD2GI,AOML,ODEN,North
2018-08-14T19:00:28Z,1534273229,2018,19,0,226.792,226.792,81.399,8.9828,1005.5,1.7,-999.0,yes,yes,no,300234065745780,BD2GI,AOML,ODEN,North
2018-08-14T19:59:31Z,1534276771,2018,20,0,226.833,226.833,81.3964,8.983,1006.0,1.7,-999.0,yes,yes,no,300234065745780,BD2GI,AOML,ODEN,North
2018-08-14T21:00:00Z,1534280400,2018,21,0,226.875,226.875,81.395,8.9846,1006.0,1.7,-999.0,yes,yes,no,300234065745780,BD2GI,AOML,ODEN,North
2018-08-14T22:00:28Z,1534284029,2018,22,0,226.917,226.917,81.395,9.0072,1006.3,1.8,-999.0,yes,yes,no,300234065745780,BD2GI,AOML,ODEN,North
2018-08-14T22:59:31Z,1534287571,2018,23,0,226.958,226.958,81.3944,9.057,1006.3,1.8,-999.0,yes,yes,no,300234065745780,BD2GI,AOML,ODEN,North
2018-08-15T00:00:00Z,1534291200,2018,0,0,227.0,227.0,81.3922,9.1156,1006.1,1.9,-999.0,yes,yes,no,300234065745780,BD2GI,AOML,ODEN,North
2018-08-15T01:00:28Z,1534294829,2018,1,0,227.042,227.042,81.3868,9.1634,1006.2,1.8,-999.0,yes,yes,no,300234065745780,BD2GI,AOML,ODEN,North
2018-08-15T01:59:31Z,1534298371,2018,2,0,227.083,227.083,81.381,9.2064,1006.2,1.5,-999.0,yes,yes,no,300234065745780,BD2GI,AOML,ODEN,North
2018-08-15T03:00:00Z,1534302000,2018,3,0,227.125,227.125,81.3754,9.231,1006.1,1.2,-999.0,yes,yes,no,300234065745780,BD2GI,AOML,ODEN,North
2018-08-15T04:00:28Z,1534305629,2018,4,0,227.167,227.167,81.3716,9.2418,1005.7,1.2,-999.0,yes,yes,no,300234065745780,BD2GI,AOML,ODEN,North
2018-08-15T04:59:31Z,1534309171,2018,5,0,227.208,227.208,81.3694,9.2534,1005.6,1.3,-999.0,yes,yes,no,300234065745780,BD2GI,AOML,ODEN,North
2018-08-15T06:00:00Z,1534312800,2018,6,0,227.25,227.25,81.3702,9.27,1005.3,1.6,-999.0,yes,yes,no,300234065745780,BD2GI,AOML,ODEN,North
2018-08-15T07:00:28Z,1534316429,2018,7,0,227.292,227.292,81.3702,9.295,1005.5,1.6,-999.0,yes,yes,no,300234065745780,BD2GI,AOML,ODEN,North
2018-08-15T07:59:31Z,1534319971,2018,8,0,227.333,227.333,81.369,9.328,1005.4,1.6,-999.0,yes,yes,no,300234065745780,BD2GI,AOML,ODEN,North
2018-08-15T09:00:00Z,1534323600,2018,9,0,227.375,227.375,81.3658,9.3616,1005.7,1.6,-999.0,yes,yes,no,300234065745780,BD2GI,AOML,ODEN,North
2018-08-15T10:00:28Z,1534327229,2018,10,0,227.417,227.417,81.3616,9.3988,1005.6,1.6,-999.0,yes,yes,no,300234065745780,BD2GI,AOML,ODEN,North
2018-08-15T10:59:31Z,1534330771,2018,11,0,227.458,227.458,81.3558,9.4324,1006.1,1.6,-999.0,yes,yes,no,300234065745780,BD2GI,AOML,ODEN,North
2018-08-15T12:00:00Z,1534334400,2018,12,0,227.5,227.5,81.3486,9.446,1006.3,1.9,-999.0,yes,yes,no,300234065745780,BD2GI,AOML,ODEN,North
2018-08-15T13:00:28Z,1534338029,2018,13,0,227.542,227.542,81.3426,9.4586,1006.6,1.9,-999.0,yes,yes,no,300234065745780,BD2GI,AOML,ODEN,North
2018-08-15T13:59:31Z,1534341571,2018,14,0,227.583,227.583,81.3372,9.4676,1006.7,1.8,-999.0,yes,yes,no,300234065745780,BD2GI,AOML,ODEN,North
2018-08-15T15:00:00Z,1534345200,2018,15,0,227.625,227.625,81.3332,9.479,1007.1,1.6,-999.0,yes,yes,no,300234065745780,BD2GI,AOML,ODEN,North
2018-08-15T16:00:28Z,1534348829,2018,16,0,227.667,227.667,81.3304,9.4858,1007.3,1.4,-999.0,yes,yes,no,300234065745780,BD2GI,AOML,ODEN,North
2018-08-15T16:59:31Z,1534352371,2018,17,0,227.708,227.708,81.3284,9.4914,1007.5,1.5,-999.0,yes,yes,no,300234065745780,BD2GI,AOML,ODEN,North
2018-08-15T18:00:00Z,1534356000,2018,18,0,227.75,227.75,81.3298,9.5004,1007.6,1.6,-999.0,yes,yes,no,300234065745780,BD2GI,AOML,ODEN,North
2018-08-15T19:00:28Z,1534359629,2018,19,0,227.792,227.792,81.3306,9.512,1007.7,1.9,-999.0,yes,yes,no,300234065745780,BD2GI,AOML,ODEN,North
2018-08-15T19:59:31Z,1534363171,2018,20,0,227.833,227.833,81.3306,9.5272,1007.7,1.8,-999.0,yes,yes,no,300234065745780,BD2GI,AOML,ODEN,North
2018-08-15T21:00:00Z,1534366800,2018,21,0,227.875,227.875,81.3322,9.542,1007.8,1.3,-999.0,yes,yes,no,300234065745780,BD2GI,AOML,ODEN,North
2018-08-15T22:00:28Z,1534370429,2018,22,0,227.917,227.917,81.332,9.5624,1008.0,1.2,-999.0,yes,yes,no,300234065745780,BD2GI,AOML,ODEN,North
2018-08-15T22:59:31Z,1534373971,2018,23,0,227.958,227.958,81.3288,9.5754,1007.7,1.2,-999.0,yes,yes,no,300234065745780,BD2GI,AOML,ODEN,North
2018-08-16T00:00:00Z,1534377600,2018,0,0,228.0,228.0,81.3278,9.5962,1007.7,1.2,-999.0,yes,yes,no,300234065745780,BD2GI,AOML,ODEN,North
2018-08-16T01:00:28Z,1534381229,2018,1,0,228.042,228.042,81.3264,9.6246,1007.8,1.2,-999.0,yes,yes,no,300234065745780,BD2GI,AOML,ODEN,North
2018-08-16T01:59:31Z,1534384771,2018,2,0,228.083,228.083,81.3258,9.6584,1007.8,1.2,-999.0,yes,yes,no,300234065745780,BD2GI,AOML,ODEN,North
2018-08-16T03:00:00Z,1534388400,2018,3,0,228.125,228.125,81.324,9.694,1007.7,1.2,-999.0,yes,yes,no,300234065745780,BD2GI,AOML,ODEN,North
2018-08-16T04:00:28Z,1534392029,2018,4,0,228.167,228.167,81.3212,9.722,1007.6,1.2,-999.0,yes,yes,no,300234065745780,BD2GI,AOML,ODEN,North
2018-08-16T04:59:31Z,1534395571,2018,5,0,228.208,228.208,81.319,9.741,1007.6,1.2,-999.0,yes,yes,no,300234065745780,BD2GI,AOML,ODEN,North
2018-08-16T06:00:00Z,1534399200,2018,6,0,228.25,228.25,81.3164,9.7506,1007.5,1.2,-999.0,yes,yes,no,300234065745780,BD2GI,AOML,ODEN,North
2018-08-16T07:00:28Z,1534402829,2018,7,0,228.292,228.292,81.3144,9.7566,1007.6,1.2,-999.0,yes,yes,no,300234065745780,BD2GI,AOML,ODEN,North
2018-08-16T07:59:31Z,1534406371,2018,8,0,228.333,228.333,81.3146,9.7604,1007.9,1.2,-999.0,yes,yes,no,300234065745780,BD2GI,AOML,ODEN,North
2018-08-16T09:00:00Z,1534410000,2018,9,0,228.375,228.375,81.3146,9.7654,1008.1,1.1,-999.0,yes,yes,no,300234065745780,BD2GI,AOML,ODEN,North
2018-08-16T10:00:28Z,1534413629,2018,10,0,228.417,228.417,81.3134,9.7826,1008.3,1.2,-999.0,yes,yes,no,300234065745780,BD2GI,AOML,ODEN,North
2018-08-16T10:59:31Z,1534417171,2018,11,0,228.458,228.458,81.312,9.801,1008.8,1.5,-999.0,yes,yes,no,300234065745780,BD2GI,AOML,ODEN,North
2018-08-16T12:00:00Z,1534420800,2018,12,0,228.5,228.5,81.3092,9.823,1008.7,1.7,-999.0,yes,yes,no,300234065745780,BD2GI,AOML,ODEN,North
2018-08-16T13:00:28Z,1534424429,2018,13,0,228.542,228.542,81.3036,9.8492,1009.1,1.6,-999.0,yes,yes,no,300234065745780,BD2GI,AOML,ODEN,North
2018-08-16T13:59:31Z,1534427971,2018,14,0,228.583,228.583,81.2958,9.8556,1009.3,1.5,-999.0,yes,yes,no,300234065745780,BD2GI,AOML,ODEN,North
2018-08-16T15:00:00Z,1534431600,2018,15,0,228.625,228.625,81.2882,9.8478,1009.4,1.4,-999.0,yes,yes,no,300234065745780,BD2GI,AOML,ODEN,North
2018-08-16T16:00:28Z,1534435229,2018,16,0,228.667,228.667,81.2814,9.832,1009.4,1.3,-999.0,yes,yes,no,300234065745780,BD2GI,AOML,ODEN,North
2018-08-16T16:59:31Z,1534438771,2018,17,0,228.708,228.708,81.2774,9.8224,1009.3,1.2,-999.0,yes,yes,no,300234065745780,BD2GI,AOML,ODEN,North
2018-08-16T18:00:00Z,1534442400,2018,18,0,228.75,228.75,81.2752,9.8072,1009.0,1.4,-999.0,yes,yes,no,300234065745780,BD2GI,AOML,ODEN,North
2018-08-16T19:00:28Z,1534446029,2018,19,0,228.792,228.792,81.2732,9.7948,1008.7,1.4,-999.0,yes,yes,no,300234065745780,BD2GI,AOML,ODEN,North
2018-08-16T19:59:31Z,1534449571,2018,20,0,228.833,228.833,81.2734,9.7924,1008.7,1.2,-999.0,yes,yes,no,300234065745780,BD2GI,AOML,ODEN,North
2018-08-16T21:00:00Z,1534453200,2018,21,0,228.875,228.875,81.274,9.7828,1008.6,1.2,-999.0,yes,yes,no,300234065745780,BD2GI,AOML,ODEN,North
2018-08-16T22:00:28Z,1534456829,2018,22,0,228.917,228.917,81.275,9.7882,1008.8,1.3,-999.0,yes,yes,no,300234065745780,BD2GI,AOML,ODEN,North
2018-08-16T22:59:31Z,1534460371,2018,23,0,228.958,228.958,81.2732,9.8072,1008.7,1.5,-999.0,yes,yes,no,300234065745780,BD2GI,AOML,ODEN,North
2018-08-17T00:00:00Z,1534464000,2018,0,0,229.0,229.0,81.2694,9.8288,1008.9,1.6,-999.0,yes,yes,no,300234065745780,BD2GI,AOML,ODEN,North
2018-08-17T01:00:28Z,1534467629,2018,1,0,229.042,229.042,81.2648,9.843,1008.9,1.6,-999.0,yes,yes,no,300234065745780,BD2GI,AOML,ODEN,North
2018-08-17T01:59:31Z,1534471171,2018,2,0,229.083,229.083,81.261,9.847,1008.8,1.9,-999.0,yes,yes,no,300234065745780,BD2GI,AOML,ODEN,North
2018-08-17T03:00:00Z,1534474800,2018,3,0,229.125,229.125,81.2546,9.847,1008.5,2.0,-999.0,yes,yes,no,300234065745780,BD2GI,AOML,ODEN,North